Kane, PA (16735)

7:57 AM EDT on July 25, 2017 (GMT -0400)
Division Street Ext. | | Change Station

Elev 2245 ft 41.70 °N, 78.64 °W | Updated 1 minute ago

Overcast
Overcast
57.4 °F
Feels Like 57.4 °F
N
0.4
Wind Variable Wind from NW
Gusts 1.3 mph

Today
High -- | Low -- °F
--% Chance of Precip.
Yesterday
High -- | Low -- °F
Precip. -- in
Pressure 30.12 in
Visibility 5.0 miles
Clouds Few 800 ft
Mostly Cloudy 1300 ft
Overcast 2100 ft
Dew Point 56 °F
Humidity 95%
Rainfall 0.04 in
Snow Depth Not available.
6:03 AM 8:39 PM
Waxing Crescent, 6% visible
METAR KBFD 251153Z AUTO 33008KT 5SM -RA BR FEW008 BKN013 OVC021 14/14 A3013 RMK AO2 RAB53 SLP197 P0000 60003 70004 T01440144 10150 20144 52008
Pressure 30.12 in
Visibility 5.0 miles
Clouds Few 800 ft
Mostly Cloudy 1300 ft
Overcast 2100 ft
Dew Point 56 °F
Humidity 95%
Rainfall 0.04 in
Snow Depth Not available.
6:03 AM 8:39 PM
Waxing Crescent, 6% visible
METAR KBFD 251153Z AUTO 33008KT 5SM -RA BR FEW008 BKN013 OVC021 14/14 A3013 RMK AO2 RAB53 SLP197 P0000 60003 70004 T01440144 10150 20144 52008

Get Severe Weather Alerts

Thanks for signing up!

Be on the lookout for a verification email in your inbox.

You'll start receiving the daily forecast at 6 AM.

×

10-Day Weather Forecast

Almanac

Astronomy

Jul. 25, 2017 Rise Set
Actual Time
Civil Twilight
Nautical Twilight
Astronomical Twilight
Moon
Length of Visible Light
Length of Day
Tomorrow will be .
, % of the Moon is Illuminated

Today's Extremes

State Highs State Lows

Community

WunderPhotos

Category 6

Welcome to Category 6. This is the collective home for Weather Underground's featured writeups by Dr. Jeff Masters (right), Bob Henson (left), Chris Burt, and other regular contributors.

Nearby

Air Quality

  Air Quality AQ Index Pollutant
Not available.

Snow Depth

Station Depth Elevation

Earthquake Activity

City Distance Mag. Time & Date
Minimum magnitude displayed is 2.5.

Coastal Water Temperatures

Place Temperature

Stations

Nearby Weather Stations

Station Location Temp. Windchill Dew Point Humidity Wind Precip. Elev Updated Type
                   

Watches & Warnings

There are currently no watches in effect.